Location: Bagnara
(41.0500°N, 14.7833°E)
Time: 10:20:46
(UTC+00:00)

ATLAS 5 CENTAUR R/B - Pass Details

Date: 20 June 2021
Orbit: 510 x 1148 km, 63.4° (Epoch: 28 July)

Event Time Altitude Azimuth Distance (km) Brightness Sun altitude
Exits shadow 02:29:23 - 275° (W) 2,371 4.2 -9.6°
Reaches altitude 10° 02:31:32 10° 296° (WNW) 1,856 3.8 -9.3°
Maximum altitude 02:33:38 14° 327° (NNW) 1,699 3.9 -9.0°
Drops below altitude 10° 02:35:52 10° 358° (N) 1,994 4.8 -8.7°
Sets 02:39:29 0° 24° (NNE) 3,047 6.5 -8.2°
